Terug naar catalogus

STARLINK-37174

ActiefCommunicatieSSO
NORAD 68767·PAYLOAD·🇺🇸 United States

Gelanceerd Apr 19, 2026 vanaf Vandenberg Space Force Base

Loading…

Volgende Passages (komende 24 uur)

TLE

VersSource: CelesTrak SupGP

Epoch: Sep 15, 2026, 02:45 UTC

1 68767C 26086B   26258.11506944 -.00016442  00000+0 -51041-3 0  2589
2 68767  97.2843 293.5581 0001103  87.2751 342.5230 15.33447922    17

Volg STARLINK-37174 in realtime met AllMySat

Download on the App Store